This is the latest recevied weather packets stored in our database for station/object W1RCY. If no packets are shown the sender has not sent any weather packets the latest 10 day(s).
| Time | Temp. | Humidity | Pressure | Rain* | Wind** | Luminosity | Snow |
|---|---|---|---|---|---|---|---|
| 1778013021 | 27.22° C | 36% | 1002.2 hPa | 0 mm | - | 493 W/m² | - |
| 1778012717 | 26.67° C | 37% | 1002.1 hPa | 0 mm | - | 134 W/m² | - |
| 1778012413 | 27.22° C | 36% | 1001.9 hPa | 0 mm | - | 229 W/m² | - |
| 1778012110 | 27.22° C | 38% | 1002.3 hPa | 0 mm | - | 235 W/m² | - |
| 1778011807 | 27.22° C | 37% | 1002.2 hPa | 0 mm | - | 488 W/m² | - |
| 1778011505 | 27.22° C | 38% | 1002.1 hPa | 0 mm | - | 538 W/m² | - |
| 1778011201 | 27.22° C | 38% | 1002.2 hPa | 0 mm | - | 192 W/m² | - |
| 1778010898 | 27.22° C | 37% | 1002.3 hPa | 0 mm | - | 605 W/m² | - |
| 1778010595 | 27.22° C | 36% | 1002.6 hPa | 0 mm | - | 170 W/m² | - |
| 1778010293 | 27.22° C | 36% | 1002.6 hPa | 0 mm | - | 260 W/m² | - |
| 1778009993 | 27.22° C | 36% | 1002.3 hPa | 0 mm | - | 165 W/m² | - |
| 1778009690 | 27.22° C | 36% | 1002.3 hPa | 0 mm | - | 573 W/m² | - |
| 1778009388 | 26.67° C | 36% | 1002.7 hPa | 0 mm | - | 627 W/m² | - |
| 1778009086 | 26.67° C | 37% | 1002.6 hPa | 0 mm | - | 277 W/m² | - |
| 1778008783 | 27.22° C | 37% | 1002.6 hPa | 0 mm | - | 166 W/m² | - |
| 1778008482 | 27.22° C | 38% | 1003 hPa | 0 mm | - | 664 W/m² | - |
| 1778008178 | 27.78° C | 37% | 1002.8 hPa | 0 mm | - | 155 W/m² | - |
| 1778007873 | 27.22° C | 37% | 1003.1 hPa | 0 mm | - | 660 W/m² | - |
| 1778007569 | 26.67° C | 38% | 1003.2 hPa | 0 mm | - | 768 W/m² | - |
| 1778007267 | 27.22° C | 37% | 1003.4 hPa | 0 mm | - | 223 W/m² | - |
| 1778006963 | 27.22° C | 36% | 1003.5 hPa | 0 mm | - | 505 W/m² | - |
| 1778006660 | 27.22° C | 36% | 1003.5 hPa | 0 mm | - | 412 W/m² | - |
| 1778006357 | 26.67° C | 37% | 1003.5 hPa | 0 mm | - | 258 W/m² | - |
| 1778006054 | 26.67° C | 38% | 1003.6 hPa | 0 mm | - | 241 W/m² | - |
| 1778005750 | 26.67° C | 39% | 1003.8 hPa | 0 mm | - | 656 W/m² | - |
* Rain latest hour (hover to see other rain measurements)
** Current wind speed in m/s (hover to see current wind gust speed)